St. Joseph, KS

9:44 PM CDT on March 26, 2017 (GMT -0500)
Rosecrans Memorial

Weather History for KSTJ - November, 2011

Change the Weather History Date:

Thursday, November 10, 2011

  Actual Average Record
Temperature  
Mean Temperature 39 °F 45 °F  
Max Temperature 48 °F 56 °F 82 °F (1927)
Min Temperature 29 °F 34 °F 16 °F (1960)
Degree Days  
Heating Degree Days 26 20  
Month to date heating degree days 187 183  
Since 1 July heating degree days 526 602  
Cooling Degree Days 0 0  
Month to date cooling degree days 0 0  
Year to date cooling degree days 494 1220  
Moisture  
Dew Point 25 °F    
Average Humidity 66    
Maximum Humidity 92    
Minimum Humidity 39    
Precipitation  
Precipitation 0.00 in 0.05 in 0.43 in (1940)
Month to date precipitation 3.40 0.70  
Year to date precipitation 17.35 33.23  
Sea Level Pressure  
Sea Level Pressure 30.24 in    
Wind  
Wind Speed 6 mph (NW)    
Max Wind Speed 18 mph    
Max Gust Speed 24 mph    
Visibility 10 miles    
Events      
T = Trace of Precipitation, MM = Missing Value Source: NWS Daily Summary

Daily Weather History Graph

Daily Weather History Graph

Search for Another Location

Airport or City:

Trip Planner

Search our weather history database for the weather conditions in past years. The results will help you decide how hot, cold, wet, or windy it might be!

Date:

Astronomy

Nov. 10, 2011 Rise Set
Actual Time 6:58 AM CST 5:08 PM CST
Civil Twilight 6:29 AM CST 5:36 PM CST
Nautical Twilight 5:57 AM CST 6:09 PM CST
Astronomical Twilight 5:25 AM CST 6:40 PM CST
Moon 4:56 PM CST (11/10) 6:51 AM CST (11/10)
Length of Visible Light 11h 07m
Length of Day
10h 10m
Full, 100% of the Moon is Illuminated
Nov 10
Full
Nov 10
Full
Nov 18
Last Quarter
Nov 25
New
Dec 2
First Quarter

Hourly Weather History & Observations

Time (CST) Temp. Windchill Dew Point Humidity Pressure Visibility Wind Dir Wind Speed Gust Speed Precip Events Conditions
12:53 AM 35.1 °F 27.9 °F 24.1 °F 64% 30.29 in 10.0 mi West 9.2 mph - N/A   Clear
1:53 AM 36.0 °F 28.0 °F 23.0 °F 59% 30.29 in 10.0 mi NW 11.5 mph - N/A   Clear
2:53 AM 34.0 °F 26.6 °F 24.1 °F 67% 30.29 in 10.0 mi NW 9.2 mph - N/A   Clear
3:53 AM 32.0 °F 26.4 °F 23.0 °F 69% 30.29 in 10.0 mi WNW 5.8 mph - N/A   Clear
4:53 AM 30.9 °F - 23.0 °F 72% 30.29 in 10.0 mi Calm Calm - N/A   Clear
5:53 AM 30.2 °F 24.3 °F 23.0 °F 75% 30.27 in 10.0 mi WNW 5.8 mph - N/A   Clear
6:53 AM 32.0 °F 22.5 °F 21.2 °F 64% 30.28 in 10.0 mi WNW 12.7 mph - N/A   Clear
7:53 AM 33.1 °F 25.5 °F 23.0 °F 66% 30.32 in 10.0 mi WNW 9.2 mph - N/A   Clear
8:53 AM 37.0 °F 28.5 °F 23.0 °F 57% 30.34 in 10.0 mi NW 13.8 mph - N/A   Clear
9:53 AM 39.9 °F 33.9 °F 23.0 °F 51% 30.33 in 10.0 mi NW 9.2 mph - N/A   Clear
10:53 AM 41.0 °F 34.3 °F 25.0 °F 53% 30.33 in 10.0 mi NW 11.5 mph - N/A   Clear
11:53 AM 43.0 °F 36.4 °F 23.0 °F 45% 30.32 in 10.0 mi NW 12.7 mph - N/A   Clear
12:53 PM 45.0 °F 38.9 °F 23.0 °F 42% 30.28 in 10.0 mi NW 12.7 mph 21.9 mph N/A   Clear
1:53 PM 46.9 °F - 26.1 °F 44% 30.25 in 10.0 mi NW 8.1 mph - N/A   Clear
2:53 PM 46.9 °F - 25.0 °F 42% 30.23 in 10.0 mi WNW 5.8 mph - N/A   Clear
3:53 PM 48.0 °F - 25.0 °F 41% 30.22 in 10.0 mi NNW 8.1 mph - N/A   Clear
4:53 PM 44.1 °F 42.5 °F 26.1 °F 49% 30.21 in 10.0 mi WNW 3.5 mph - N/A   Clear
5:53 PM 41.0 °F - 28.9 °F 62% 30.19 in 10.0 mi Calm Calm - N/A   Clear
6:53 PM 35.1 °F - 30.0 °F 82% 30.18 in 10.0 mi Calm Calm - N/A   Clear
7:53 PM 34.0 °F - 30.9 °F 89% 30.17 in 10.0 mi Calm Calm - N/A   Clear
8:53 PM 34.0 °F - 30.0 °F 85% 30.16 in 10.0 mi Calm Calm - N/A   Clear
9:53 PM 30.9 °F - 28.0 °F 89% 30.14 in 10.0 mi Calm Calm - N/A   Clear
10:53 PM 30.0 °F - 28.0 °F 92% 30.11 in 10.0 mi Calm Calm - N/A   Clear
11:53 PM 30.0 °F - 28.9 °F 96% 30.10 in 10.0 mi Calm Calm - N/A   Clear